Location: Eschentzwiller
(47.7125°N, 7.3981°E)
Time: 23:57:12
(UTC+00:00)

USA 306 - Pass Details

Date: 27 October 2020
Orbit: 569 x 577 km, 54.0° (Epoch: 22 November)

Event Time Altitude Azimuth Distance (km) Brightness Sun altitude
Rises 17:51:29 0° 299° (WNW) 2,787 7.5 -15.9°
Reaches altitude 10° 17:53:46 10° 302° (WNW) 1,885 6.4 -16.3°
Maximum altitude 17:58:02 63° 24° (NNE) 642 3.0 -17.0°
Enters shadow 17:59:35 36° 92° (E) 909 3.4 -17.3°
